Torna al catalogo

CZ-6A DEB

AttivoSSO
NORAD 54925·DEBRIS·🇨🇳 China

Lanciato Nov 11, 2022 da Taiyuan Satellite Launch Center

Loading…

Prossimi Passaggi (prossime 24 ore)

TLE

AggiornatoSource: Space-Track

Epoca: Sep 14, 2026, 11:07 UTC

1 54925U 22151RN  26257.46336005  .00000681  00000-0  38125-3 0  9992
2 54925  98.8399 261.7824 0042244  71.5963 288.9796 14.13553367197307

Traccia CZ-6A DEB in tempo reale con AllMySat

Download on the App Store